Location: Cantaing
(50.1487°N, 3.1675°E)
Time: 16:25:29
(UTC+00:00)

ISS - Pass Details

Date: 14 March 2026
Orbit: 416 x 425 km, 51.6° (Epoch: 18 April)

Event Time Altitude Azimuth Distance (km) Brightness Sun altitude
Rises 19:29:20 0° 242° (WSW) 2,381 0.8 -16.4°
Reaches altitude 10° 19:31:27 10° 240° (WSW) 1,516 -0.3 -16.8°
Maximum altitude 19:34:49 65° 158° (SSE) 472 -3.8 -17.3°
Enters shadow 19:35:25 52° 105° (ESE) 535 -3.7 -17.4°
